ROMMA est une association bénévole à but non lucratif. Votre soutien est indispensable : ADHERER à ROMMA ou FAIRE un DON

Engins - (38, Isère)

Vercors (906 m)   Longitude: 05° 37' E   Latitude: 45° 11' N Station partenaire n°139
 

Détail journalier du     <<     >>

Température Precipitation Humidité Vent Dir Rafale Dir. rafale Ensol.
Heure (°C) (mm) (%) (km/h) (km/h) (min)
01:00 11.20627SSO26SSE0
02:00 11.106911SSO31SSE0
03:00 11.60659S34SSE0
04:00 11.606715S34SSE0
05:00 12.406413S34SSE0
06:00 11.706817S40S0
07:00 12.206714S34SSE0
08:00 12.606611S34SSE0
09:00 12.707011S29SSE10
10:00 14.107214S35SSE45
11:00 15.80698S26SSO35
12:00 16.70755E19SSE25
13:00 17.60715S16SSE25
14:00 19.30675SSE21SSE40
15:00 20.30674NE21SSE40
16:00 19.006814S35SSE0
17:00 18.406810S26SSE0
18:00 17.906913SSO27S0
19:00 17.20698SSO21OSO0
20:00 16.20736SSO16OSO0
21:00 16.30727SSO19SSE0
22:00 15.20757OSO26SSE0
23:00 14.90769S21SSE0
minuit 14.30769SSO24S0

Graphique du 12-10-2019

 

Serveur OMMA